Location: Go?cza
(50.3372°N, 19.9313°E)
Time: 23:48:24
(UTC+00:00)

Cosmos 1980 Rocket - Pass Details

Date: 23 May 2024
Orbit: 827 x 851 km, 71.0° (Epoch: 22 June)

Event Time Altitude Azimuth Distance (km) Brightness Sun altitude
Rises 01:06:29 0° 313° (NW) 3,427 5.5 -11.7°
Maximum altitude 01:12:19 10° 267° (W) 2,482 4.3 -11.2°
Drops below altitude 10° 01:12:24 10° 266° (W) 2,482 4.3 -11.2°
Enters shadow 01:13:59 - 250° (WSW) 2,567 4.2 -11.0°
